[[{"header":{"parameterUnit":"m.s-1","parameterCategory":1,"la1":30.2991,"la2":30.254,"lo1":-89.0895,"lo2":-89.0444,"dy":0.0017,"dx":0.0017,"nx":28,"ny":28,"refTime":"2025-07-13T21:00:00:Z","depth":0,"parameterNumber":2,"parameterNumberName":"U-component_of_WINDS"},"data":[0,0,0,0,0,0,0,0,0,0,0,0,0,0,0,0,0,0,0,0,0,0,0,0,0,0,0,0,0,0,0,0,0,0,0,0,0,0,0,0,0,0,0,0,0,0,0,0,0,0,0,0,0,0,0,0,0,0,1.867,1.8671,0,1.8775,1.8776,1.8777,1.8788,1.8787,1.8785,1.8784,1.8898,1.8901,1.8905,0,0,0,0,0,0,0,0,0,0,0,0,0,1.8483,1.8487,1.867,1.8671,1.8673,1.8775,1.8776,1.8778,1.8788,1.8786,1.8785,1.8784,1.8896,1.8901,1.8906,0,0,0,0,0,0,0,0,0,0,0,0,0,1.8574,1.8488,1.867,1.869,1.8693,1.8775,1.8776,1.8778,1.8788,1.8786,1.8785,1.8783,1.8895,1.8901,1.8907,1.8977,0,0,1.8925,1.8928,0,0,0,0,0,0,0,0,1.8569,1.8581,1.8686,1.8689,1.8692,1.8766,1.8752,1.8845,1.8789,1.8752,1.8784,1.8782,1.8856,1.8865,1.8888,1.8983,1.8987,1.8926,1.8929,1.8932,1.8934,0,0,0,0,0,0,0,1.8563,1.8577,1.8712,1.8687,1.8691,1.8695,1.8706,1.877,1.8812,1.8755,1.8756,1.8768,1.8857,1.8882,1.8891,1.8989,1.8925,1.8931,1.8935,1.8937,1.9147,1.9149,0,0,0,0,0,0,1.8552,1.8571,1.8708,1.8715,1.8625,1.87,1.8712,1.8744,1.8811,1.882,1.8769,1.8768,1.8873,1.8884,1.8895,1.8983,1.8932,1.8938,1.8941,1.9145,1.9148,1.915,0,0,0,0,0,0,1.8548,1.8564,1.8704,1.8643,1.8661,1.8705,1.8741,1.8747,1.8773,1.8822,1.883,1.8787,1.8872,1.8887,1.8956,1.8987,1.894,1.8946,1.9143,1.9146,1.9149,1.9158,0,0,0,0,0,0,1.8542,1.8562,1.8589,1.8644,1.8665,1.8762,1.8743,1.875,1.8782,1.8782,1.8841,1.8849,1.8872,1.8947,1.8962,1.8994,1.8951,1.9141,1.9144,1.9148,1.9155,1.9161,1.9165,0,0,0,0,0,1.8536,1.8588,1.859,1.8606,1.8698,1.8764,1.8776,1.8799,1.8785,1.8812,1.8844,1.8847,1.8981,1.8954,1.8972,1.9005,1.9139,1.9143,1.9148,1.9153,1.916,1.9165,0,0,0,0,0,0,1.8538,1.8596,1.8598,1.867,1.8711,1.8765,1.8801,1.8806,1.8854,1.8852,1.888,1.8894,1.8963,1.8991,1.8961,1.9078,1.9058,1.9066,1.9056,1.9063,1.9069,1.9061,1.8956,0,0,0,0,0,1.8546,1.8593,1.8642,1.87,1.8721,1.8757,1.8787,1.8801,1.8846,1.8864,1.8901,1.8947,1.8999,1.9033,1.9083,1.9159,1.9173,1.9191,1.9196,1.92,1.9207,1.925,1.9258,1.9164,1.9164,1.9164,0,0,1.8564,1.8602,1.863,1.8702,1.8736,1.8785,1.8772,1.8825,1.8863,1.8873,1.8941,1.897,1.9022,1.9095,1.9129,1.9121,1.9236,1.9206,1.9209,1.9213,1.9255,1.9264,1.9272,1.9167,1.9167,1.9166,0,0,1.8623,1.8656,1.8708,1.8742,1.8793,1.8817,1.8829,1.8882,1.8901,1.8969,1.8978,1.9024,1.9113,1.915,1.918,1.9253,1.9258,1.9269,1.9296,1.9337,1.9345,1.9352,1.9378,1.9387,1.9275,1.9275,1.9275,0,1.864,1.8713,1.8735,1.8787,1.8819,1.8829,1.8883,1.8915,1.8981,1.9003,1.8993,1.9104,1.914,1.9222,1.9239,1.9264,1.928,1.9262,1.9342,1.9349,1.9355,1.9381,1.939,1.9276,1.9276,1.9276,1.9276,0,1.8732,1.8783,1.8819,1.888,1.8916,1.8969,1.9,1.9034,1.9045,1.907,1.914,1.9183,1.9243,1.9263,1.9275,1.9347,1.934,1.9335,1.9317,1.9365,1.9389,1.9399,1.9278,1.9277,1.9277,1.9277,0,0,1.8796,1.8867,1.888,1.8908,1.8964,1.9005,1.9059,1.9115,1.9144,1.9189,1.9236,1.9311,1.9306,1.9341,1.9357,1.9393,1.9448,1.9384,1.9386,1.9395,1.9531,1.9534,1.9545,1.9451,1.9453,1.9455,1.9526,0,1.8861,1.8955,1.8976,1.9058,1.9106,1.9116,1.9163,1.9203,1.9228,1.9274,1.9302,1.9355,1.9345,1.9365,1.9401,1.9434,1.9476,1.9429,1.9497,1.9499,1.9483,1.9558,1.9562,1.9627,1.9536,1.9537,1.9539,0,1.8951,1.8995,1.9081,1.9131,1.9152,1.9194,1.9247,1.929,1.9337,1.9353,1.9391,1.9403,1.9461,1.9439,1.952,1.9488,1.9517,1.9537,1.954,1.9548,1.9522,1.9568,1.9648,1.9658,1.9554,1.9553,1.9552,0,1.8989,1.9071,1.9133,1.9157,1.9216,1.9246,1.9272,1.9317,1.935,1.9397,1.9419,1.9473,1.9502,1.9545,1.9572,1.9553,1.9651,1.9631,1.9667,1.9666,1.9688,1.9686,1.9774,1.9706,1.9706,1.9705,1.9705,0,1.906,1.9113,1.9151,1.9189,1.9248,1.9272,1.9331,1.9358,1.9398,1.9443,1.9455,1.9497,1.953,1.9578,1.96,1.9664,1.9677,1.9693,1.9698,1.9692,1.969,1.9712,1.9708,1.9708,1.9707,1.9707,1.9706,0,1.9113,1.9141,1.9209,1.926,1.9274,1.9315,1.9359,1.9398,1.9422,1.9479,1.9494,1.9533,1.9589,1.962,1.9692,1.9706,1.9778,1.9781,1.9762,1.9764,1.9798,1.9795,1.9904,1.992,1.984,1.9841,1.9841,0,1.9157,1.9197,1.9252,1.9281,1.9308,1.9356,1.9389,1.9415,1.9448,1.9504,1.9536,1.9593,1.9639,1.9729,1.9765,1.982,1.9824,1.9859,1.9833,1.9825,1.9825,1.9823,1.9827,1.9863,1.9864,1.9865,1.9865,0,1.9233,1.9244,1.9289,1.934,1.9378,1.942,1.9461,1.9485,1.9518,1.9555,1.9612,1.9648,1.9719,1.9775,1.9833,1.9862,1.987,1.9873,1.9884,1.9879,1.9866,1.9873,1.9774,1.987,1.987,1.987,1.9869,1.9869,1.9283,1.9319,1.9362,1.9413,1.9446,1.9484,1.9522,1.9551,1.9598,1.9657,1.967,1.9729,1.9776,1.9853,1.9884,1.9932,1.9926,1.9942,1.9946,1.995,1.9951,1.9857,1.9943,1.9943,1.9942,1.9942,1.9942,0,1.9359,1.9387,1.9433,1.9489,1.953,1.9531,1.9576,1.961,1.9662,1.9704,1.9748,1.9814,1.9868,1.9908,1.9964,1.9995,2.0,2.0009,2.0007,2.0014,1.9954,1.9938,2.0004,2.0004,2.0004,2.0004,2.0004,2.0004,1.9403,1.9465,1.9481,1.9559,1.9588,1.9645,1.9671,1.9706,1.9739,1.9811,1.9855,1.988,1.9922,1.9981,2.0031,2.0041,2.0062,2.007,2.0082,2.0025,2.0018,2.0012,1.9998,2.0075,2.0075,2.0138,2.0138,2.0139]},{"header":{"parameterUnit":"m.s-1","parameterCategory":1,"la1":30.2991,"la2":30.254,"lo1":-89.0895,"lo2":-89.0444,"dy":0.0017,"dx":0.0017,"nx":28,"ny":28,"refTime":"2025-07-13T21:00:00:Z","depth":0,"parameterNumber":3,"parameterNumberName":"V-component_of_WINDS"},"data":[0,0,0,0,0,0,0,0,0,0,0,0,0,0,0,0,0,0,0,0,0,0,0,0,0,0,0,0,0,0,0,0,0,0,0,0,0,0,0,0,0,0,0,0,0,0,0,0,0,0,0,0,0,0,0,0,0,0,2.4907,2.4907,0,2.4846,2.4845,2.4845,2.4824,2.4825,2.4825,2.4825,2.4755,2.4753,2.475,0,0,0,0,0,0,0,0,0,0,0,0,0,2.4999,2.4998,2.4908,2.4907,2.4906,2.4846,2.4845,2.4844,2.4824,2.4825,2.4825,2.4825,2.4755,2.4753,2.475,0,0,0,0,0,0,0,0,0,0,0,0,0,2.4951,2.4997,2.4908,2.4889,2.4887,2.4846,2.4845,2.4844,2.4824,2.4825,2.4825,2.4826,2.4756,2.4753,2.475,2.4721,0,0,2.474,2.4739,0,0,0,0,0,0,0,0,2.4953,2.4947,2.4892,2.489,2.4888,2.4844,2.4852,2.4803,2.4824,2.4848,2.4825,2.4826,2.4783,2.4778,2.4765,2.4718,2.4715,2.474,2.4738,2.4736,2.4735,0,0,0,0,0,0,0,2.4957,2.495,2.4883,2.4892,2.4889,2.4881,2.4874,2.4842,2.4813,2.4846,2.4844,2.4838,2.4782,2.4768,2.4763,2.4714,2.474,2.4737,2.4735,2.4734,2.4637,2.4636,0,0,0,0,0,0,2.4964,2.4953,2.4885,2.4881,2.4922,2.4879,2.4872,2.4857,2.4814,2.4808,2.4837,2.4837,2.4774,2.4767,2.4761,2.4723,2.4736,2.4733,2.4732,2.4638,2.4637,2.4636,0,0,0,0,0,0,2.4966,2.4959,2.4887,2.4916,2.4907,2.4877,2.4861,2.4856,2.4842,2.4808,2.4802,2.4829,2.4774,2.4765,2.4731,2.472,2.4732,2.4729,2.4638,2.4637,2.4636,2.4647,0,0,0,0,0,0,2.4969,2.4959,2.495,2.4917,2.4905,2.4861,2.486,2.4854,2.4837,2.4836,2.4798,2.4792,2.4773,2.4736,2.4728,2.4716,2.4726,2.4639,2.4638,2.4637,2.4648,2.4647,2.4646,0,0,0,0,0,2.4973,2.4955,2.495,2.4942,2.4894,2.4861,2.4854,2.4835,2.4837,2.4826,2.4803,2.4794,2.4723,2.4733,2.4723,2.471,2.464,2.4638,2.4637,2.4648,2.4647,2.4646,0,0,0,0,0,0,2.4986,2.495,2.4944,2.4916,2.4892,2.4858,2.4844,2.4835,2.4808,2.4808,2.4782,2.4774,2.4741,2.4722,2.4734,2.4679,2.468,2.4677,2.4692,2.4691,2.469,2.4695,2.4724,0,0,0,0,0,2.4986,2.4965,2.4934,2.4911,2.49,2.4874,2.4859,2.4846,2.4819,2.4808,2.4783,2.4755,2.4726,2.4708,2.4679,2.4645,2.4635,2.4631,2.463,2.463,2.4627,2.4604,2.4601,2.4631,2.4631,2.4631,0,0,2.4985,2.4963,2.4951,2.4913,2.4893,2.4869,2.4865,2.484,2.4821,2.4803,2.477,2.475,2.4717,2.4682,2.4666,2.4666,2.4616,2.4628,2.4628,2.4625,2.4602,2.46,2.4597,2.463,2.4631,2.4631,0,0,2.4971,2.4953,2.4932,2.4912,2.4882,2.4865,2.486,2.4827,2.4814,2.478,2.4766,2.4741,2.4693,2.4669,2.4651,2.4626,2.4615,2.4617,2.4612,2.459,2.4588,2.4586,2.4574,2.4571,2.4614,2.4614,2.4614,0,2.4973,2.4939,2.4921,2.4897,2.488,2.4865,2.4841,2.4821,2.4783,2.477,2.4771,2.4709,2.4685,2.4644,2.4638,2.4624,2.4614,2.4621,2.459,2.4588,2.4585,2.4574,2.457,2.4615,2.4615,2.4615,2.4615,0,2.4941,2.4918,2.4903,2.4869,2.485,2.4826,2.4802,2.4784,2.4772,2.4754,2.4718,2.469,2.4654,2.4644,2.4631,2.4599,2.46,2.4596,2.4597,2.4583,2.4572,2.4568,2.4615,2.4615,2.4615,2.4615,0,0,2.4934,2.489,2.4885,2.4868,2.4834,2.4813,2.4787,2.4755,2.4739,2.4712,2.4688,2.4647,2.4642,2.4621,2.4606,2.4588,2.4567,2.4585,2.4584,2.4581,2.4526,2.4528,2.4523,2.456,2.4559,2.4558,2.4528,0,2.4915,2.487,2.4853,2.4815,2.4791,2.4776,2.4752,2.4727,2.4709,2.4683,2.4661,2.4632,2.463,2.4617,2.4598,2.4573,2.4555,2.4575,2.4533,2.4532,2.4541,2.4518,2.452,2.4493,2.4524,2.4523,2.4522,0,2.4886,2.4861,2.4822,2.4788,2.4778,2.4757,2.4725,2.4702,2.4671,2.4659,2.4635,2.4621,2.4589,2.4593,2.4547,2.4562,2.4543,2.4528,2.4526,2.452,2.4525,2.4509,2.4484,2.4479,2.4516,2.4516,2.4517,0,2.4882,2.4839,2.4809,2.4795,2.4756,2.4742,2.4724,2.4695,2.4675,2.4646,2.4633,2.4599,2.4581,2.4553,2.4529,2.4535,2.4484,2.4487,2.447,2.447,2.4459,2.446,2.4429,2.445,2.445,2.445,2.4451,0,2.4861,2.4837,2.4807,2.4789,2.476,2.4739,2.471,2.4691,2.4664,2.4639,2.4623,2.4599,2.4569,2.4541,2.4521,2.4484,2.4476,2.4463,2.4457,2.4463,2.4465,2.4449,2.445,2.4449,2.445,2.445,2.445,0,2.4853,2.4832,2.4798,2.4764,2.4754,2.4735,2.4704,2.4683,2.4664,2.4632,2.4623,2.4592,2.4557,2.4531,2.4485,2.4471,2.4432,2.4427,2.4443,2.444,2.4423,2.4424,2.438,2.4372,2.4401,2.4401,2.4401,0,2.484,2.4821,2.4785,2.4769,2.4752,2.4725,2.4706,2.4683,2.4663,2.4625,2.4609,2.4573,2.4544,2.4488,2.4459,2.4423,2.4416,2.4403,2.441,2.4416,2.4413,2.4414,2.441,2.4401,2.4401,2.4401,2.4401,0,2.4819,2.4809,2.4784,2.4753,2.4731,2.4706,2.468,2.4666,2.4638,2.4615,2.4581,2.4558,2.4512,2.4475,2.4436,2.4414,2.4401,2.4399,2.4393,2.4398,2.4407,2.4399,2.4438,2.44,2.44,2.44,2.44,2.44,2.4806,2.4788,2.476,2.4731,2.4709,2.4684,2.4663,2.4641,2.4613,2.4575,2.4563,2.4526,2.4492,2.4439,2.4417,2.4385,2.4385,2.4376,2.4374,2.4371,2.4371,2.4413,2.4378,2.4378,2.4378,2.4378,2.4378,0,2.4783,2.4764,2.4737,2.4702,2.4678,2.4671,2.4641,2.462,2.459,2.4561,2.4532,2.449,2.4455,2.4423,2.4384,2.4365,2.4358,2.4356,2.4356,2.435,2.4375,2.4383,2.4362,2.4362,2.4362,2.4362,2.4362,2.4362,2.4768,2.4736,2.4722,2.4678,2.4658,2.4624,2.4607,2.4583,2.456,2.4515,2.4486,2.4466,2.4435,2.4394,2.4359,2.435,2.4336,2.4334,2.4324,2.4347,2.4349,2.4351,2.4358,2.4332,2.4332,2.4301,2.4301,2.4301]}]]